Location: Be?i?
(36.9044°N, 30.1006°E)
Time: 10:19:52
(UTC+00:00)

Cosmos 2082 Rocket - Pass Details

Date: 05 August 2024
Orbit: 833 x 852 km, 71.0° (Epoch: 13 September)

Event Time Altitude Azimuth Distance (km) Brightness Sun altitude
Rises 17:58:58 0° 326° (NW) 3,385 6.6 -11.0°
Reaches altitude 10° 18:01:41 10° 316° (NW) 2,448 6.0 -11.5°
Maximum altitude 18:06:27 29° 257° (WSW) 1,473 4.0 -12.3°
Drops below altitude 10° 18:11:14 10° 198° (SSW) 2,442 4.5 -13.1°
Sets 18:13:56 0° 188° (S) 3,375 5.1 -13.6°
